Station Historical Data
Daily Summary for August 05, 2012 Units:  Metric    English   Both
« Previous Day
Next Day »
Daily Weekly Monthly Yearly Custom
  High: Low: Average:
Temperature: 29.5 °C 23.5 °C 25.2 °C
Dew Point: 25.8 °C 22 °C 23.4 °C
Humidity: 92% 78% 90%
Wind Speed: 20.9km/h 0km/h 4.8km/h
Wind Gust: 22.5km/h - -
Wind- - SE
Pressure: 1019.5 hPa 1015.8 hPa -
Precipitation: 0.76 mm    
Historical Graphs
 
 
Tabular Data for August 05, 2012
Time Temperature Dew Point Pressure Wind Wind Speed Wind Gust Humidity Rainfall Rate (Hourly) Conditions
00:00 23.8 °C 22.4 °C 1016.1 hPa SSE 8 km/h 11.3 km/h 92% 0 mm
00:01 23.8 °C 22.4 °C 1016.1 hPa SE 6.4 km/h 11.3 km/h 92% 0 mm
00:06 23.9 °C 22.5 °C 1016.1 hPa SE 8 km/h 12.9 km/h 92% 0 mm
00:11 23.9 °C 22.6 °C 1016.1 hPa ESE 11.3 km/h 16.1 km/h 92% 0 mm
00:16 24 °C 22.6 °C 1016.5 hPa SE 9.7 km/h 11.3 km/h 92% 0 mm
00:21 24 °C 22.6 °C 1016.1 hPa SSE 11.3 km/h 14.5 km/h 92% 0 mm
00:26 24.1 °C 22.7 °C 1016.1 hPa SE 11.3 km/h 12.9 km/h 92% 0 mm
00:32 24.2 °C 22.8 °C 1016.1 hPa SSE 9.7 km/h 12.9 km/h 92% 0 mm
00:37 24.2 °C 22.8 °C 1016.1 hPa SSE 6.4 km/h 12.9 km/h 92% 0 mm
00:42 24.2 °C 22.8 °C 1016.1 hPa SE 9.7 km/h 11.3 km/h 92% 0 mm
00:47 24.3 °C 22.9 °C 1016.5 hPa SSE 6.4 km/h 12.9 km/h 92% 0 mm
00:52 24.3 °C 22.9 °C 1016.1 hPa ESE 11.3 km/h 12.9 km/h 92% 0 mm
00:57 24.3 °C 22.9 °C 1016.5 hPa SE 6.4 km/h 12.9 km/h 92% 0 mm
01:02 24.3 °C 22.9 °C 1016.5 hPa SE 11.3 km/h 12.9 km/h 92% 0 mm
01:07 24.3 °C 22.9 °C 1016.5 hPa SE 8 km/h 12.9 km/h 92% 0 mm
01:12 24.3 °C 22.9 °C 1016.5 hPa SE 6.4 km/h 11.3 km/h 92% 0 mm
01:17 24.3 °C 22.9 °C 1016.5 hPa SE 8 km/h 14.5 km/h 92% 0 mm
01:22 24.3 °C 22.9 °C 1016.5 hPa SE 6.4 km/h 9.7 km/h 92% 0 mm
01:27 24.3 °C 22.9 °C 1016.8 hPa SE 8 km/h 9.7 km/h 92% 0 mm
01:32 24.3 °C 22.9 °C 1016.8 hPa SE 4.8 km/h 6.4 km/h 92% 0 mm
01:37 24.3 °C 22.9 °C 1016.8 hPa SE 6.4 km/h 8 km/h 92% 0 mm
01:42 24.3 °C 22.9 °C 1016.8 hPa ESE 6.4 km/h 8 km/h 92% 0 mm
01:47 24.3 °C 22.9 °C 1016.8 hPa SE 1.6 km/h 9.7 km/h 92% 0 mm
01:52 24.3 °C 22.9 °C 1016.8 hPa SE 6.4 km/h 8 km/h 92% 0 mm
01:57 24.3 °C 22.9 °C 1016.8 hPa SE 6.4 km/h 8 km/h 92% 0 mm
02:02 24.3 °C 22.9 °C 1016.8 hPa SE 6.4 km/h 9.7 km/h 92% 0 mm
02:07 24.3 °C 22.9 °C 1017.2 hPa SE 4.8 km/h 8 km/h 92% 0 mm
02:12 24.3 °C 22.9 °C 1017.2 hPa SSE 4.8 km/h 6.4 km/h 92% 0 mm
02:17 24.3 °C 22.9 °C 1017.2 hPa SSE 3.2 km/h 6.4 km/h 92% 0 mm
02:22 24.2 °C 22.8 °C 1017.2 hPa SSE 1.6 km/h 4.8 km/h 92% 0 mm
02:27 24.3 °C 22.9 °C 1017.2 hPa SSE 3.2 km/h 4.8 km/h 92% 0 mm
02:33 24.2 °C 22.8 °C 1017.2 hPa SE 3.2 km/h 3.2 km/h 92% 0 mm
02:38 24.2 °C 22.8 °C 1017.5 hPa SE 1.6 km/h 4.8 km/h 92% 0 mm
02:42 24.2 °C 22.8 °C 1017.5 hPa SE 4.8 km/h 4.8 km/h 92% 0 mm
02:47 24.2 °C 22.8 °C 1017.5 hPa Calm   3.2 km/h 92% 0 mm
02:53 24.2 °C 22.8 °C 1017.2 hPa SE 3.2 km/h 4.8 km/h 92% 0 mm
02:58 24.2 °C 22.8 °C 1017.2 hPa SE 6.4 km/h 6.4 km/h 92% 0 mm
03:03 24.3 °C 22.9 °C 1017.5 hPa SSE 6.4 km/h 6.4 km/h 92% 0 mm
03:08 24.3 °C 22.9 °C 1017.5 hPa SE 1.6 km/h 3.2 km/h 92% 0 mm
03:13 24.2 °C 22.8 °C 1017.5 hPa SSE 3.2 km/h 3.2 km/h 92% 0 mm
03:18 24.2 °C 22.8 °C 1017.5 hPa SSE 1.6 km/h 1.6 km/h 92% 0 mm
03:23 24.2 °C 22.8 °C 1017.5 hPa SSE 1.6 km/h 1.6 km/h 92% 0 mm
03:28 24.1 °C 22.7 °C 1017.5 hPa ESE 3.2 km/h 3.2 km/h 92% 0 mm
03:33 24.2 °C 22.8 °C 1017.5 hPa SE 4.8 km/h 6.4 km/h 92% 0 mm
03:38 24.2 °C 22.8 °C 1017.5 hPa SE 3.2 km/h 6.4 km/h 92% 0 mm
03:43 24.2 °C 22.8 °C 1017.5 hPa ESE 3.2 km/h 6.4 km/h 92% 0 mm
03:48 24.1 °C 22.7 °C 1017.5 hPa SE 6.4 km/h 8 km/h 92% 0 mm
03:53 24.1 °C 22.7 °C 1017.5 hPa SE 6.4 km/h 9.7 km/h 92% 0 mm
03:58 24.1 °C 22.7 °C 1017.5 hPa SE 4.8 km/h 6.4 km/h 92% 0 mm
04:03 24.1 °C 22.7 °C 1017.5 hPa SE 3.2 km/h 6.4 km/h 92% 0 mm
04:08 24.1 °C 22.7 °C 1017.5 hPa ESE 4.8 km/h 6.4 km/h 92% 0 mm
04:13 24.1 °C 22.7 °C 1017.5 hPa ESE 4.8 km/h 8 km/h 92% 0 mm
04:18 24.1 °C 22.7 °C 1017.5 hPa SE 4.8 km/h 6.4 km/h 92% 0 mm
04:23 24 °C 22.6 °C 1017.5 hPa SE 3.2 km/h 6.4 km/h 92% 0 mm
04:28 24 °C 22.6 °C 1017.5 hPa ESE 3.2 km/h 6.4 km/h 92% 0 mm
04:33 23.9 °C 22.6 °C 1017.5 hPa SE 3.2 km/h 4.8 km/h 92% 0 mm
04:38 23.9 °C 22.6 °C 1017.5 hPa SE 6.4 km/h 8 km/h 92% 0 mm
04:43 23.9 °C 22.5 °C 1017.5 hPa SE 3.2 km/h 8 km/h 92% 0 mm
04:48 23.9 °C 22.5 °C 1017.2 hPa SE 6.4 km/h 8 km/h 92% 0 mm
04:53 23.8 °C 22.4 °C 1017.2 hPa SE 4.8 km/h 8 km/h 92% 0 mm
04:58 23.8 °C 22.4 °C 1017.2 hPa SE 9.7 km/h 9.7 km/h 92% 0 mm
05:03 23.9 °C 22.5 °C 1017.5 hPa SE 4.8 km/h 9.7 km/h 92% 0 mm
05:08 23.9 °C 22.6 °C 1017.2 hPa SE 6.4 km/h 9.7 km/h 92% 0 mm
05:13 23.9 °C 22.6 °C 1017.5 hPa ESE 8 km/h 9.7 km/h 92% 0 mm
05:18 23.9 °C 22.6 °C 1017.5 hPa SE 4.8 km/h 8 km/h 92% 0 mm
05:23 23.9 °C 22.5 °C 1017.5 hPa SE 4.8 km/h 6.4 km/h 92% 0 mm
05:28 23.9 °C 22.6 °C 1017.5 hPa SE 4.8 km/h 9.7 km/h 92% 0 mm
05:33 23.9 °C 22.6 °C 1017.5 hPa SE 6.4 km/h 9.7 km/h 92% 0 mm
05:38 23.9 °C 22.6 °C 1017.5 hPa SE 6.4 km/h 8 km/h 92% 0 mm
05:43 23.9 °C 22.6 °C 1017.5 hPa SE 8 km/h 9.7 km/h 92% 0 mm
05:48 23.9 °C 22.5 °C 1017.2 hPa SSE 9.7 km/h 11.3 km/h 92% 0 mm
05:54 23.8 °C 22.4 °C 1017.2 hPa SSE 4.8 km/h 11.3 km/h 92% 0 mm
05:59 23.8 °C 22.4 °C 1017.2 hPa ESE 9.7 km/h 11.3 km/h 92% 0 mm
06:04 23.8 °C 22.4 °C 1017.2 hPa SE 6.4 km/h 11.3 km/h 92% 0 mm
06:08 23.7 °C 22.3 °C 1017.2 hPa SE 6.4 km/h 11.3 km/h 92% 0 mm
06:14 23.8 °C 22.4 °C 1017.2 hPa ESE 9.7 km/h 12.9 km/h 92% 0 mm
06:19 23.8 °C 22.4 °C 1017.5 hPa SE 8 km/h 16.1 km/h 92% 0 mm
06:24 23.8 °C 22.4 °C 1017.2 hPa SE 9.7 km/h 11.3 km/h 92% 0 mm
06:29 23.8 °C 22.4 °C 1017.5 hPa ESE 4.8 km/h 12.9 km/h 92% 0 mm
06:34 23.8 °C 22.4 °C 1017.5 hPa SE 11.3 km/h 12.9 km/h 92% 0 mm
06:39 23.8 °C 22.4 °C 1017.2 hPa SE 11.3 km/h 14.5 km/h 92% 0 mm
06:44 23.7 °C 22.3 °C 1017.2 hPa ESE 8 km/h 14.5 km/h 92% 0 mm
06:49 23.7 °C 22.3 °C 1017.5 hPa SE 8 km/h 9.7 km/h 92% 0 mm
06:54 23.6 °C 22.2 °C 1017.2 hPa ESE 8 km/h 14.5 km/h 92% 0 mm
06:59 23.6 °C 22.2 °C 1017.2 hPa SE 11.3 km/h 11.3 km/h 92% 0 mm
07:04 23.6 °C 22.2 °C 1017.2 hPa SE 6.4 km/h 9.7 km/h 92% 0 mm
07:09 23.6 °C 22.2 °C 1017.5 hPa SE 6.4 km/h 11.3 km/h 92% 0 mm
07:14 23.6 °C 22.2 °C 1017.5 hPa SSE 3.2 km/h 8 km/h 92% 0 mm
07:19 23.6 °C 22.2 °C 1017.5 hPa ESE 4.8 km/h 6.4 km/h 92% 0 mm
07:24 23.5 °C 22.1 °C 1017.8 hPa SSE 3.2 km/h 6.4 km/h 92% 0 mm
07:29 23.5 °C 22.1 °C 1017.8 hPa SE 3.2 km/h 4.8 km/h 92% 0 mm
07:34 23.5 °C 22.1 °C 1017.8 hPa SSE 3.2 km/h 4.8 km/h 92% 0 mm
07:39 23.5 °C 22.1 °C 1017.8 hPa SE 4.8 km/h 4.8 km/h 92% 0 mm
07:44 23.6 °C 22.2 °C 1017.8 hPa SSE 4.8 km/h 6.4 km/h 92% 0 mm
07:49 23.6 °C 22.2 °C 1017.8 hPa SE 3.2 km/h 6.4 km/h 92% 0 mm
07:54 23.7 °C 22.3 °C 1017.8 hPa SE 4.8 km/h 6.4 km/h 92% 0 mm
07:59 23.8 °C 22.4 °C 1017.8 hPa SE 6.4 km/h 8 km/h 92% 0 mm
08:04 23.9 °C 22.5 °C 1017.8 hPa SE 8 km/h 8 km/h 92% 0 mm
08:09 24.1 °C 22.7 °C 1017.8 hPa SE 4.8 km/h 8 km/h 92% 0 mm
08:14 24.2 °C 22.8 °C 1017.8 hPa SE 8 km/h 9.7 km/h 92% 0 mm
08:19 24.3 °C 22.8 °C 1017.8 hPa South 6.4 km/h 14.5 km/h 91% 0 mm
08:24 24.4 °C 22.9 °C 1017.8 hPa SE 8 km/h 9.7 km/h 91% 0 mm
08:29 24.6 °C 23.1 °C 1018.2 hPa SE 8 km/h 9.7 km/h 91% 0 mm
08:34 24.7 °C 23.2 °C 1018.2 hPa SSE 9.7 km/h 14.5 km/h 91% 0 mm
08:39 24.8 °C 23.3 °C 1018.2 hPa SSW 8 km/h 11.3 km/h 91% 0 mm
08:44 25 °C 23.2 °C 1018.2 hPa SE 4.8 km/h 11.3 km/h 90% 0 mm
08:49 25.3 °C 23.5 °C 1018.5 hPa SE 4.8 km/h 6.4 km/h 90% 0 mm
08:54 25.3 °C 23.6 °C 1018.5 hPa SSE 8 km/h 9.7 km/h 90% 0 mm
08:59 25.3 °C 23.3 °C 1018.5 hPa SSE 4.8 km/h 11.3 km/h 89% 0 mm
09:04 25.3 °C 23.5 °C 1018.5 hPa SE 8 km/h 11.3 km/h 90% 0 mm
09:09 25.2 °C 23.4 °C 1018.5 hPa SE 6.4 km/h 8 km/h 90% 0 mm
09:14 25.3 °C 23.5 °C 1018.5 hPa SSE 4.8 km/h 11.3 km/h 90% 0 mm
09:19 25.3 °C 23.5 °C 1018.5 hPa SE 8 km/h 11.3 km/h 90% 0 mm
09:24 25.3 °C 23.6 °C 1018.5 hPa SSE 9.7 km/h 12.9 km/h 90% 0 mm
09:29 25.4 °C 23.6 °C 1018.5 hPa SE 9.7 km/h 12.9 km/h 90% 0 mm
09:34 25.4 °C 23.7 °C 1018.8 hPa South 4.8 km/h 9.7 km/h 90% 0 mm
09:40 25.5 °C 23.7 °C 1018.5 hPa SSE 9.7 km/h 12.9 km/h 90% 0 mm
09:44 25.6 °C 23.8 °C 1018.8 hPa SE 6.4 km/h 11.3 km/h 90% 0 mm
09:50 25.6 °C 23.6 °C 1018.8 hPa South 4.8 km/h 12.9 km/h 89% 0 mm
09:55 25.6 °C 23.8 °C 1019.2 hPa South 3.2 km/h 11.3 km/h 90% 0 mm
10:00 25.6 °C 23.8 °C 1018.8 hPa SW 3.2 km/h 6.4 km/h 90% 0 mm
10:05 25.6 °C 23.8 °C 1019.2 hPa SSE 3.2 km/h 6.4 km/h 90% 0 mm
10:10 25.6 °C 23.8 °C 1019.2 hPa SSE 6.4 km/h 6.4 km/h 90% 0 mm
10:15 25.6 °C 23.8 °C 1018.8 hPa SSE 8 km/h 12.9 km/h 90% 0 mm
10:20 25.5 °C 23.7 °C 1018.8 hPa SSE 4.8 km/h 11.3 km/h 90% 0 mm
10:25 25.6 °C 23.8 °C 1019.2 hPa SE 4.8 km/h 8 km/h 90% 0 mm
10:30 25.7 °C 23.9 °C 1019.2 hPa SW 4.8 km/h 6.4 km/h 90% 0 mm
10:35 25.8 °C 24.1 °C 1019.2 hPa SW 3.2 km/h 8 km/h 90% 0 mm
10:40 26.1 °C 24.1 °C 1019.2 hPa South 6.4 km/h 9.7 km/h 89% 0 mm
10:45 26.3 °C 24.3 °C 1019.2 hPa SSW 6.4 km/h 9.7 km/h 89% 0 mm
10:50 26.4 °C 24.2 °C 1019.5 hPa SW 11.3 km/h 11.3 km/h 88% 0 mm
10:55 26.5 °C 24.2 °C 1019.5 hPa SW 12.9 km/h 12.9 km/h 87% 0 mm
11:00 26.6 °C 24.2 °C 1019.5 hPa SW 11.3 km/h 11.3 km/h 87% 0 mm
11:05 26.6 °C 24.1 °C 1019.5 hPa SSW 11.3 km/h 14.5 km/h 86% 0 mm
11:10 26.7 °C 24.4 °C 1019.5 hPa SE 6.4 km/h 14.5 km/h 87% 0 mm
11:15 26.8 °C 24.2 °C 1019.5 hPa SSE 8 km/h 12.9 km/h 86% 0 mm
11:20 26.9 °C 24.4 °C 1019.5 hPa SE 11.3 km/h 14.5 km/h 86% 0 mm
11:25 27 °C 24.4 °C 1019.5 hPa SE 12.9 km/h 12.9 km/h 86% 0 mm
11:30 27.1 °C 24.1 °C 1019.5 hPa SSE 11.3 km/h 12.9 km/h 84% 0 mm
11:35 27.1 °C 24.6 °C 1019.5 hPa South 11.3 km/h 14.5 km/h 86% 0 mm
11:40 27.3 °C 24.7 °C 1019.5 hPa South 1.6 km/h 11.3 km/h 86% 0 mm
11:45 27.4 °C 24.4 °C 1019.5 hPa South 11.3 km/h 12.9 km/h 84% 0 mm
11:50 27.4 °C 24.4 °C 1019.5 hPa SSE 6.4 km/h 14.5 km/h 84% 0 mm
11:55 27.4 °C 24.5 °C 1019.2 hPa SSW 6.4 km/h 11.3 km/h 84% 0 mm
12:00 27.7 °C 24.5 °C 1019.2 hPa SSE 6.4 km/h 11.3 km/h 83% 0 mm
12:05 27.9 °C 24.8 °C 1018.8 hPa SSW 4.8 km/h 17.7 km/h 83% 0 mm
12:10 28.3 °C 25.1 °C 1018.8 hPa SSE 12.9 km/h 14.5 km/h 83% 0 mm
12:15 28.3 °C 24.9 °C 1018.8 hPa South 9.7 km/h 19.3 km/h 82% 0 mm
12:20 28.8 °C 25.8 °C 1018.5 hPa SE 9.7 km/h 17.7 km/h 84% 0 mm
12:25 28.8 °C 25.2 °C 1018.5 hPa SE 20.9 km/h 22.5 km/h 81% 0 mm
12:30 28.9 °C 25.6 °C 1018.5 hPa SSE 16.1 km/h 20.9 km/h 82% 0 mm
12:35 29 °C 25.2 °C 1018.5 hPa South 9.7 km/h 14.5 km/h 80% 0 mm
12:40 29.3 °C 25.3 °C 1018.5 hPa SW 11.3 km/h 16.1 km/h 79% 0 mm
12:45 29.5 °C 25.3 °C 1018.5 hPa South 16.1 km/h 22.5 km/h 78% 0 mm
12:50 29.3 °C 25.3 °C 1018.5 hPa SSW 9.7 km/h 14.5 km/h 79% 0 mm
12:55 29.3 °C 25.5 °C 1018.5 hPa SW 6.4 km/h 19.3 km/h 80% 0 mm
13:00 29.1 °C 25.1 °C 1018.5 hPa SW 11.3 km/h 19.3 km/h 79% 0 mm
13:05 28.7 °C 25.1 °C 1018.5 hPa SW 9.7 km/h 19.3 km/h 81% 0 mm
13:10 28.4 °C 24.9 °C 1018.5 hPa West 11.3 km/h 14.5 km/h 81% 0 mm
13:15 28.3 °C 25.1 °C 1018.5 hPa SSW 9.7 km/h 12.9 km/h 83% 0 mm
13:20 28.4 °C 25.2 °C 1018.5 hPa SW 9.7 km/h 11.3 km/h 83% 0 mm
13:25 28.5 °C 24.9 °C 1018.5 hPa SW 12.9 km/h 12.9 km/h 81% 0 mm
13:30 28.5 °C 24.9 °C 1018.5 hPa WSW 4.8 km/h 14.5 km/h 81% 0 mm
13:35 28.1 °C 24.9 °C 1018.5 hPa NW 4.8 km/h 12.9 km/h 83% 0 mm
13:40 27.6 °C 24.7 °C 1018.2 hPa WNW 3.2 km/h 8 km/h 84% 0 mm
13:46 27.2 °C 24.7 °C 1018.2 hPa West 3.2 km/h 4.8 km/h 86% 0 mm
13:51 27 °C 24.4 °C 1018.5 hPa SSE 3.2 km/h 3.2 km/h 86% 0 mm
13:55 26.6 °C 23.8 °C 1018.5 hPa South 4.8 km/h 14.5 km/h 85% 0 mm
14:01 25.7 °C 22.6 °C 1018.2 hPa SSE 6.4 km/h 11.3 km/h 83% 0 mm
14:06 25.1 °C 22 °C 1018.2 hPa SE 9.7 km/h 16.1 km/h 83% 0 mm
14:11 24.8 °C 22.3 °C 1017.8 hPa East 4.8 km/h 8 km/h 86% 0 mm
14:16 24.6 °C 22.3 °C 1018.2 hPa SSW 4.8 km/h 9.7 km/h 87% 0 mm
14:21 24.3 °C 22.2 °C 1018.2 hPa WSW 3.2 km/h 4.8 km/h 88% 0 mm
14:26 24.2 °C 22.2 °C 1018.2 hPa WSW 1.6 km/h 3.2 km/h 89% 2.29 mm
14:31 24.1 °C 22.4 °C 1017.8 hPa SE 1.6 km/h 3.2 km/h 90% 2.29 mm
14:37 24.2 °C 22.6 °C 1017.8 hPa SSE 3.2 km/h 6.4 km/h 91% 1.27 mm
14:42 24.1 °C 22.6 °C 1017.8 hPa SSW 1.6 km/h 4.8 km/h 91% 0 mm
14:47 24.2 °C 22.8 °C 1018.2 hPa Calm   1.6 km/h 92% 0 mm
14:52 24.2 °C 22.8 °C 1018.5 hPa Calm   3.2 km/h 92% 0 mm
14:57 24.2 °C 22.8 °C 1018.2 hPa Calm   4.8 km/h 92% 0 mm
15:02 24.3 °C 22.9 °C 1018.2 hPa Calm   3.2 km/h 92% 0 mm
15:07 24.3 °C 22.9 °C 1018.2 hPa West 1.6 km/h 1.6 km/h 92% 0 mm
15:12 24.3 °C 22.9 °C 1018.2 hPa SW 1.6 km/h 3.2 km/h 92% 0 mm
15:17 24.4 °C 23 °C 1018.2 hPa Calm   3.2 km/h 92% 0 mm
15:22 24.4 °C 23.1 °C 1017.8 hPa SSE 3.2 km/h 4.8 km/h 92% 0 mm
15:27 24.4 °C 23.1 °C 1017.8 hPa SSE 3.2 km/h 4.8 km/h 92% 0 mm
15:32 24.4 °C 23 °C 1017.8 hPa SSE 3.2 km/h 6.4 km/h 92% 0 mm
15:37 24.4 °C 23 °C 1017.8 hPa SSE 1.6 km/h 3.2 km/h 92% 0 mm
15:42 24.4 °C 23 °C 1017.8 hPa Calm   3.2 km/h 92% 0 mm
15:47 24.4 °C 23.1 °C 1017.8 hPa Calm     92% 0 mm
15:52 24.4 °C 23.1 °C 1017.5 hPa SE 4.8 km/h 4.8 km/h 92% 0 mm
15:57 24.4 °C 23 °C 1017.5 hPa SE 1.6 km/h 4.8 km/h 92% 0 mm
16:02 24.4 °C 23.1 °C 1017.5 hPa SSE 4.8 km/h 4.8 km/h 92% 0 mm
16:07 24.5 °C 23.1 °C 1017.5 hPa SE 3.2 km/h 4.8 km/h 92% 0 mm
16:12 24.6 °C 23.2 °C 1017.5 hPa ESE 4.8 km/h 6.4 km/h 92% 0 mm
16:17 24.7 °C 23.3 °C 1017.5 hPa SE 3.2 km/h 4.8 km/h 92% 0 mm
16:22 24.7 °C 23.3 °C 1017.5 hPa SE 4.8 km/h 4.8 km/h 92% 0 mm
16:27 24.8 °C 23.4 °C 1017.5 hPa SSE 3.2 km/h 3.2 km/h 92% 0 mm
16:32 25 °C 23.6 °C 1017.5 hPa SE 1.6 km/h 3.2 km/h 92% 0 mm
16:38 25.1 °C 23.7 °C 1017.5 hPa SE 3.2 km/h 6.4 km/h 92% 0 mm
16:43 25.3 °C 23.7 °C 1017.5 hPa SE 4.8 km/h 6.4 km/h 91% 0 mm
16:48 25.4 °C 23.9 °C 1017.5 hPa ESE 3.2 km/h 4.8 km/h 91% 0 mm
16:53 25.7 °C 23.9 °C 1017.5 hPa SE 3.2 km/h 6.4 km/h 90% 0 mm
16:58 26 °C 24.1 °C 1017.2 hPa Calm   4.8 km/h 89% 0 mm
17:03 26.4 °C 24.2 °C 1017.2 hPa Calm   4.8 km/h 88% 0 mm
17:08 26.8 °C 24.6 °C 1017.2 hPa SSW 3.2 km/h 3.2 km/h 88% 0 mm
17:13 27.1 °C 24.6 °C 1017.2 hPa SE 3.2 km/h 4.8 km/h 86% 0 mm
17:18 27.3 °C 24.6 °C 1017.2 hPa Calm   3.2 km/h 85% 0 mm
17:23 27.3 °C 24.6 °C 1017.2 hPa Calm   3.2 km/h 85% 0 mm
17:28 27.4 °C 25.1 °C 1016.8 hPa Calm   3.2 km/h 87% 0 mm
17:33 27.3 °C 24.2 °C 1016.8 hPa Calm   4.8 km/h 83% 0 mm
17:38 27.2 °C 24.3 °C 1016.8 hPa Calm   4.8 km/h 84% 0 mm
17:43 27.2 °C 24.3 °C 1016.8 hPa ESE 3.2 km/h 3.2 km/h 84% 0 mm
17:48 27.1 °C 24.6 °C 1016.8 hPa East 4.8 km/h 6.4 km/h 86% 0 mm
17:53 26.9 °C 24.4 °C 1016.5 hPa East 3.2 km/h 8 km/h 86% 0 mm
17:58 26.8 °C 24.5 °C 1016.5 hPa ENE 3.2 km/h 6.4 km/h 87% 0 mm
18:03 26.7 °C 24.3 °C 1016.5 hPa East 3.2 km/h 4.8 km/h 87% 0 mm
18:08 26.6 °C 24.4 °C 1016.5 hPa East 3.2 km/h 4.8 km/h 88% 0 mm
18:13 26.7 °C 24.5 °C 1016.5 hPa ESE 4.8 km/h 4.8 km/h 88% 0 mm
18:18 26.7 °C 24.6 °C 1016.5 hPa ESE 1.6 km/h 3.2 km/h 88% 0 mm
18:23 26.7 °C 24.6 °C 1016.5 hPa East 1.6 km/h 4.8 km/h 88% 0 mm
18:28 26.8 °C 24.8 °C 1016.5 hPa SE 1.6 km/h 3.2 km/h 89% 0 mm
18:33 26.8 °C 24.7 °C 1016.5 hPa SE 4.8 km/h 6.4 km/h 88% 0 mm
18:38 26.8 °C 24.7 °C 1016.5 hPa SE 4.8 km/h 6.4 km/h 88% 0 mm
18:43 26.8 °C 24.7 °C 1016.5 hPa SE 1.6 km/h 6.4 km/h 88% 0 mm
18:48 26.8 °C 24.7 °C 1016.5 hPa East 3.2 km/h 6.4 km/h 88% 0 mm
18:53 26.8 °C 24.6 °C 1016.5 hPa ESE 3.2 km/h 4.8 km/h 88% 0 mm
18:58 26.7 °C 24.8 °C 1016.5 hPa ESE 1.6 km/h 4.8 km/h 89% 0 mm
19:03 26.7 °C 24.8 °C 1016.1 hPa ESE 4.8 km/h 4.8 km/h 89% 0 mm
19:08 26.7 °C 24.8 °C 1016.1 hPa SE 1.6 km/h 4.8 km/h 89% 0 mm
19:13 26.8 °C 24.8 °C 1016.1 hPa Calm   1.6 km/h 89% 0 mm
19:18 26.8 °C 24.9 °C 1016.1 hPa Calm   3.2 km/h 89% 0 mm
19:23 26.9 °C 24.9 °C 1016.1 hPa Calm   1.6 km/h 89% 0 mm
19:28 26.9 °C 25 °C 1016.1 hPa East 1.6 km/h 1.6 km/h 89% 0 mm
19:33 26.8 °C 24.7 °C 1016.1 hPa ESE 3.2 km/h 3.2 km/h 88% 0 mm
19:38 26.7 °C 24.8 °C 1016.1 hPa SE 1.6 km/h 3.2 km/h 89% 0 mm
19:43 26.7 °C 24.9 °C 1016.1 hPa ESE 1.6 km/h 3.2 km/h 90% 0 mm
19:48 26.6 °C 24.8 °C 1016.1 hPa ESE 1.6 km/h 1.6 km/h 90% 0 mm
19:54 26.6 °C 24.9 °C 1015.8 hPa ESE 3.2 km/h 3.2 km/h 91% 0 mm
19:59 26.4 °C 24.9 °C 1015.8 hPa ESE 3.2 km/h 4.8 km/h 91% 0 mm
20:04 26.3 °C 24.8 °C 1015.8 hPa SE 3.2 km/h 6.4 km/h 91% 0 mm
20:09 26.2 °C 24.6 °C 1015.8 hPa ESE 3.2 km/h 3.2 km/h 91% 0 mm
20:14 26.1 °C 24.6 °C 1016.1 hPa ESE 3.2 km/h 3.2 km/h 91% 0 mm
20:19 26 °C 24.4 °C 1016.1 hPa ESE 1.6 km/h 3.2 km/h 91% 0 mm
20:24 25.8 °C 24.3 °C 1016.1 hPa SE 1.6 km/h 6.4 km/h 91% 0 mm
20:29 25.7 °C 24.3 °C 1016.1 hPa ESE 1.6 km/h 4.8 km/h 92% 0 mm
20:34 25.6 °C 24.2 °C 1016.1 hPa ESE 1.6 km/h 3.2 km/h 92% 0 mm
20:39 25.5 °C 24.1 °C 1016.1 hPa ESE 1.6 km/h 1.6 km/h 92% 0 mm
20:44 25.4 °C 24 °C 1016.1 hPa Calm   1.6 km/h 92% 0 mm
20:49 25.3 °C 23.9 °C 1016.1 hPa East 1.6 km/h 3.2 km/h 92% 0 mm
20:54 25.2 °C 23.8 °C 1016.1 hPa Calm   1.6 km/h 92% 0 mm
20:59 25.1 °C 23.7 °C 1016.5 hPa ESE 3.2 km/h 3.2 km/h 92% 0 mm
21:04 25 °C 23.6 °C 1016.5 hPa Calm   1.6 km/h 92% 0 mm
21:09 24.9 °C 23.6 °C 1016.5 hPa Calm   3.2 km/h 92% 0 mm
21:14 24.9 °C 23.5 °C 1016.8 hPa Calm     92% 0 mm
21:19 24.8 °C 23.4 °C 1016.8 hPa NE 1.6 km/h 1.6 km/h 92% 0 mm
21:24 24.8 °C 23.4 °C 1016.8 hPa NE 1.6 km/h 1.6 km/h 92% 0 mm
21:29 24.7 °C 23.3 °C 1016.8 hPa Calm   1.6 km/h 92% 0 mm
21:34 24.7 °C 23.3 °C 1016.8 hPa Calm     92% 0 mm
21:39 24.7 °C 23.3 °C 1016.8 hPa NE 1.6 km/h 1.6 km/h 92% 0 mm
21:44 24.7 °C 23.3 °C 1016.8 hPa NE 1.6 km/h 1.6 km/h 92% 0 mm
21:49 24.6 °C 23.2 °C 1017.2 hPa Calm   1.6 km/h 92% 0 mm
21:54 24.5 °C 23.1 °C 1017.2 hPa Calm     92% 0 mm
21:59 24.4 °C 23.1 °C 1017.2 hPa Calm   1.6 km/h 92% 0 mm
22:04 24.4 °C 23 °C 1017.5 hPa Calm   1.6 km/h 92% 0 mm
22:09 24.4 °C 23.1 °C 1017.5 hPa ESE 1.6 km/h 1.6 km/h 92% 0 mm
22:14 24.4 °C 23.1 °C 1017.5 hPa SE 3.2 km/h 3.2 km/h 92% 0 mm
22:19 24.4 °C 23 °C 1017.5 hPa SE 3.2 km/h 4.8 km/h 92% 0 mm
22:24 24.3 °C 22.9 °C 1017.5 hPa East 3.2 km/h 4.8 km/h 92% 0 mm
22:29 24.3 °C 22.9 °C 1017.5 hPa ESE 1.6 km/h 3.2 km/h 92% 0 mm
22:34 24.2 °C 22.8 °C 1017.5 hPa ESE 1.6 km/h 1.6 km/h 92% 0 mm
22:39 24.2 °C 22.8 °C 1017.5 hPa East 1.6 km/h 4.8 km/h 92% 0 mm
22:45 24.2 °C 22.8 °C 1017.5 hPa Calm   3.2 km/h 92% 0 mm
22:50 24.2 °C 22.8 °C 1017.8 hPa ESE 3.2 km/h 3.2 km/h 92% 0 mm
22:55 24.1 °C 22.7 °C 1017.8 hPa ESE 3.2 km/h 4.8 km/h 92% 0 mm
23:00 24.2 °C 22.8 °C 1017.8 hPa East 3.2 km/h 4.8 km/h 92% 0 mm
23:05 24.2 °C 22.8 °C 1017.8 hPa ESE 3.2 km/h 3.2 km/h 92% 0 mm
23:10 24.2 °C 22.8 °C 1017.8 hPa ESE 3.2 km/h 4.8 km/h 92% 0 mm
23:15 24.1 °C 22.7 °C 1017.8 hPa East 3.2 km/h 3.2 km/h 92% 0 mm
23:20 24.1 °C 22.7 °C 1017.8 hPa ESE 3.2 km/h 4.8 km/h 92% 0 mm
23:25 24.2 °C 22.8 °C 1017.5 hPa Calm   3.2 km/h 92% 0 mm
23:30 24.2 °C 22.8 °C 1017.8 hPa Calm   1.6 km/h 92% 0 mm
23:35 24.2 °C 22.8 °C 1017.5 hPa East 1.6 km/h 3.2 km/h 92% 0 mm
23:40 24.2 °C 22.8 °C 1017.5 hPa Calm   3.2 km/h 92% 0 mm
23:45 24.1 °C 22.7 °C 1017.5 hPa Calm   1.6 km/h 92% 0 mm
23:50 24.1 °C 22.7 °C 1017.5 hPa Calm   1.6 km/h 92% 0 mm
23:55 24 °C 22.6 °C 1017.5 hPa SE 1.6 km/h 3.2 km/h 92% 0 mm
Compliments of Weather Underground